Hourly Data Report for October 06, 2013

All times are specified in Local Standard Time (LST). Add 1 hour to adjust for Daylight Saving Time where and when it is observed.

GJOA HAVEN A
NUNAVUT

68°38'08.000" N
95°51'01.000" W
46.90 m
2302337
71597
YHK

Download Data

Hourly Data (October 2013)
Hourly Data Report for October 6, 2013
Temp Definition
°C
Dew Point Temp Definition
°C
Rel Hum Definition
%
Wind Dir Definition
10's deg

Wind Spd Definition
km/h
Visibility Definition
km
Stn Press Definition
kPa
Hmdx Definition


Wind Chill Definition


Weather Definition


TIME
00:00 Legend Double Dagger -1.9 -4.7 81 17 21 16.1 100.72   -8 LegendNANA
01:00 Legend Double Dagger -2.1 -4.0 87 16 22 16.1 100.72   -8 LegendNANA
02:00 Legend Double Dagger -2.4 -3.5 92 15 18 16.1 100.71   -8 LegendNANA
03:00 Legend Double Dagger -2.3 -3.5 92 14 22 16.1 100.70   -8 LegendNANA
04:00 Legend Double Dagger -2.4 -4.0 89 14 18 16.1 100.69   -8 LegendNANA
05:00 Legend Double Dagger -2.3 -3.8 90 13 22 14.5 100.69   -8 LegendNANA
06:00 Legend Double Dagger -2.1 -3.7 89 13 22 16.1 100.70   -8 LegendNANA
07:00 Legend Double Dagger -2.1 -3.4 91 13 26 16.1 100.70   -9 LegendNANA
08:00 Legend Double Dagger -1.8 -3.0 92 14 22 16.1 100.71   -8 LegendNANA
09:00 Legend Double Dagger -1.6 -2.4 94 14 24 6.4 100.71   -8 LegendNANA
10:00 Legend Double Dagger -1.4 -2.2 94 14 26 11.3 100.71   -8 LegendNANA
11:00 Legend Double Dagger -1.2 -2.1 94 13 28 9.7 100.72   -8 LegendNANA
12:00 Legend Double Dagger -0.9 -2.4 90 12 30 14.5 100.72   -8 LegendNANA
13:00 Legend Double Dagger -0.7 -2.2 90 12 30 16.1 100.73   -7 LegendNANA
14:00 Legend Double Dagger -0.3 -2.7 84 13 30 16.1 100.73   -7 LegendNANA
15:00 Legend Double Dagger -0.3 -2.8 83 13 28 16.1 100.76   -7 LegendNANA
16:00 Legend Double Dagger -0.2 -2.4 85 12 24 16.1 100.78   -6 LegendNANA
17:00 Legend Double Dagger -0.2 -2.6 84 12 30 16.1 100.78   -7 LegendNANA
18:00 Legend Double Dagger -0.4 -2.6 85 11 32 16.1 100.78   -7 LegendNANA
19:00 Legend Double Dagger -0.3 -2.4 86 12 33 16.1 100.77   -7 LegendNANA
20:00 Legend Double Dagger -0.3 -2.4 86 13 30 16.1 100.79   -7 LegendNANA
21:00 Legend Double Dagger -0.8 -2.3 90 13 30 16.1 100.78   -8 LegendNANA
22:00 Legend Double Dagger -0.9 -2.5 89 13 30 16.1 100.79   -8 LegendNANA
23:00 Legend Double Dagger -1.1 -2.8 88 12 28 16.1 100.81   -8 LegendNANA

Notes on Data Quality.

Legend

  • E = Estimated
  • M = Missing
  • NA = Not Available
  • ‡ = Partner data that is not subject to review by the National Climate Archives
Date modified: